Bluffton, MN

7:17 AM CDT on July 30, 2016 (GMT -0500)
Wadena Municipal

Weather History for KADC - October, 2013

Change the Weather History Date:

Sunday, October 6, 2013

  Actual Average Record
Temperature  
Mean Temperature 50 °F -  
Max Temperature 57 °F 58 °F 85 °F (1961)
Min Temperature 42 °F 35 °F 15 °F (1976)
Degree Days  
Heating Degree Days 16    
Moisture  
Dew Point 42 °F    
Average Humidity 84    
Maximum Humidity 100    
Minimum Humidity 54    
Precipitation  
Precipitation 0.04 in - - ()
Sea Level Pressure  
Sea Level Pressure 29.80 in    
Wind  
Wind Speed 7 mph (NNW)    
Max Wind Speed 16 mph    
Max Gust Speed 23 mph    
Visibility 8 miles    
Events Rain    
Averages and records for this station are not official NWS values.
T = Trace of Precipitation, MM = Missing Value Source: NWS Daily Summary

Daily Weather History Graph

Daily Weather History Graph

Search for Another Location

Airport or City:

Trip Planner

Search our weather history database for the weather conditions in past years. The results will help you decide how hot, cold, wet, or windy it might be!

Date:

Astronomy

Oct. 06, 2013 Rise Set
Actual Time 7:26 AM CDT 6:50 PM CDT
Civil Twilight 6:56 AM CDT 7:20 PM CDT
Nautical Twilight 6:21 AM CDT 7:55 PM CDT
Astronomical Twilight 5:46 AM CDT 8:30 PM CDT
Moon 9:19 AM CDT (10/6) 7:41 PM CDT (10/6)
Length of Visible Light 12h 24m
Length of Day
11h 24m
Waxing Crescent, 3% of the Moon is Illuminated
Oct 6
Waxing Crescent
Oct 11
First Quarter
Oct 18
Full
Oct 26
Last Quarter
Nov 3
New

Hourly Weather History & Observations

Time (CDT) Temp. Windchill Dew Point Humidity Pressure Visibility Wind Dir Wind Speed Gust Speed Precip Events Conditions
12:14 AM 46.4 °F 43.5 °F 46.4 °F 100% 29.77 in 4.0 mi ENE 5.8 mph - N/A   Overcast
12:34 AM 46.4 °F 45.2 °F 44.6 °F 93% 29.78 in 3.0 mi NNE 3.5 mph - N/A Rain Rain
12:53 AM 46.4 °F 43.5 °F 44.6 °F 93% 29.77 in 3.0 mi NE 5.8 mph - N/A   Drizzle
1:15 AM 46.4 °F - 44.6 °F 93% 29.77 in 3.0 mi Calm Calm - N/A   Overcast
1:34 AM 46.4 °F 45.2 °F 44.6 °F 93% 29.76 in 4.0 mi NE 3.5 mph - N/A   Overcast
1:53 AM 46.4 °F 45.2 °F 44.6 °F 93% 29.77 in 3.0 mi NE 3.5 mph - N/A   Overcast
2:15 AM 46.4 °F 44.3 °F 44.6 °F 93% 29.76 in 3.0 mi NNE 4.6 mph - 0.01 in   Heavy Drizzle
2:35 AM 46.4 °F - 44.6 °F 93% 29.76 in 3.0 mi Calm Calm - 0.02 in   Drizzle
2:53 AM 46.4 °F 44.3 °F 44.6 °F 93% 29.76 in 3.0 mi North 4.6 mph - 0.02 in   Drizzle
3:15 AM 46.4 °F 43.5 °F 44.6 °F 93% 29.75 in 3.0 mi NNW 5.8 mph - N/A   Drizzle
3:35 AM 46.4 °F 43.5 °F 44.6 °F 93% 29.75 in 4.0 mi North 5.8 mph - 0.01 in   Drizzle
3:53 AM 44.6 °F 40.2 °F 44.6 °F 100% 29.75 in 4.0 mi North 8.1 mph - 0.01 in   Light Drizzle
4:15 AM 44.6 °F 40.7 °F 44.6 °F 100% 29.75 in 10.0 mi North 6.9 mph - N/A   Overcast
4:35 AM 44.6 °F 39.7 °F 44.6 °F 100% 29.75 in 10.0 mi NNW 9.2 mph - N/A   Overcast
4:53 AM 44.6 °F 39.7 °F 42.8 °F 93% 29.74 in 10.0 mi NNW 9.2 mph - N/A   Overcast
5:15 AM 44.6 °F 39.2 °F 42.8 °F 93% 29.75 in 5.0 mi North 10.4 mph - N/A   Overcast
5:35 AM 44.6 °F 38.8 °F 42.8 °F 93% 29.75 in 10.0 mi North 11.5 mph - N/A   Overcast
5:53 AM 44.6 °F 38.8 °F 42.8 °F 93% 29.75 in 10.0 mi NNW 11.5 mph - N/A   Overcast
6:14 AM 44.6 °F 39.7 °F 42.8 °F 93% 29.76 in 10.0 mi North 9.2 mph - N/A   Overcast
6:35 AM 44.6 °F 39.2 °F 42.8 °F 93% 29.76 in 7.0 mi North 10.4 mph - N/A   Overcast
6:53 AM 44.6 °F 39.7 °F 42.8 °F 93% 29.76 in 4.0 mi NNW 9.2 mph - N/A   Overcast
7:14 AM 44.6 °F 39.2 °F 42.8 °F 93% 29.77 in 10.0 mi NNW 10.4 mph - N/A   Overcast
7:35 AM 44.6 °F 39.7 °F 42.8 °F 93% 29.77 in 3.0 mi NNW 9.2 mph 16.1 mph N/A   Drizzle
7:53 AM 44.6 °F 39.7 °F 42.8 °F 93% 29.77 in 5.0 mi North 9.2 mph - N/A   Overcast
8:14 AM 44.6 °F 39.2 °F 42.8 °F 93% 29.77 in 5.0 mi North 10.4 mph - N/A   Overcast
8:34 AM 44.6 °F 40.7 °F 42.8 °F 93% 29.77 in 2.0 mi North 6.9 mph - N/A   Drizzle
8:53 AM 44.6 °F 39.2 °F 42.8 °F 93% 29.78 in 7.0 mi North 10.4 mph - N/A   Light Drizzle
9:15 AM 44.6 °F 39.2 °F 42.8 °F 93% 29.78 in 10.0 mi North 10.4 mph - N/A Rain Rain
9:35 AM 44.6 °F 39.7 °F 42.8 °F 93% 29.78 in 7.0 mi NNW 9.2 mph - N/A Rain Light Rain
9:53 AM 44.6 °F 39.2 °F 42.8 °F 93% 29.78 in 10.0 mi NNW 10.4 mph 16.1 mph N/A   Light Drizzle
10:15 AM 44.6 °F 37.8 °F 42.8 °F 93% 29.79 in 10.0 mi North 15.0 mph 19.6 mph N/A   Overcast
10:34 AM 44.6 °F 38.1 °F 42.8 °F 93% 29.79 in 10.0 mi North 13.8 mph 21.9 mph 0.01 in   Overcast
10:53 AM 44.6 °F 38.8 °F 42.8 °F 93% 29.80 in 10.0 mi North 11.5 mph 18.4 mph 0.01 in   Overcast
11:15 AM 44.6 °F 38.1 °F 42.8 °F 93% 29.81 in 10.0 mi North 13.8 mph 20.7 mph N/A   Overcast
11:35 AM 44.6 °F 38.4 °F 42.8 °F 93% 29.81 in 10.0 mi North 12.7 mph 18.4 mph N/A   Overcast
11:52 AM 44.6 °F 39.2 °F 42.8 °F 93% 29.81 in 10.0 mi North 10.4 mph 17.3 mph N/A   Overcast
12:15 PM 46.4 °F 41.1 °F 42.8 °F 87% 29.81 in 10.0 mi North 11.5 mph 17.3 mph N/A   Overcast
12:35 PM 46.4 °F 41.9 °F 44.6 °F 93% 29.81 in 10.0 mi North 9.2 mph 19.6 mph N/A   Overcast
12:52 PM 46.4 °F 41.1 °F 44.6 °F 93% 29.81 in 10.0 mi NNW 11.5 mph 18.4 mph N/A   Overcast
1:14 PM 48.2 °F - 44.6 °F 87% 29.81 in 10.0 mi NNW 11.5 mph 18.4 mph N/A   Overcast
1:34 PM 48.2 °F - 44.6 °F 87% 29.81 in 10.0 mi NNW 9.2 mph 18.4 mph N/A   Overcast
1:53 PM 48.2 °F - 44.6 °F 87% 29.81 in 10.0 mi NNW 13.8 mph 18.4 mph N/A   Overcast
2:14 PM 50.0 °F - 44.6 °F 82% 29.81 in 10.0 mi NNW 16.1 mph 19.6 mph N/A   Overcast
2:34 PM 53.6 °F - 44.6 °F 72% 29.81 in 10.0 mi North 13.8 mph 23.0 mph N/A   Mostly Cloudy
2:53 PM 53.6 °F - 44.6 °F 72% 29.80 in 10.0 mi NNW 16.1 mph 20.7 mph N/A   Scattered Clouds
3:15 PM 53.6 °F - 42.8 °F 67% 29.80 in 10.0 mi NNW 10.4 mph 19.6 mph N/A   Clear
3:35 PM 55.4 °F - 42.8 °F 63% 29.80 in 10.0 mi North 10.4 mph - N/A   Clear
3:53 PM 55.4 °F - 42.8 °F 63% 29.80 in 10.0 mi NNW 13.8 mph 20.7 mph N/A   Clear
4:15 PM 55.4 °F - 42.8 °F 63% 29.80 in 10.0 mi NW 11.5 mph - N/A   Clear
4:35 PM 57.2 °F - 42.8 °F 59% 29.80 in 10.0 mi NW 11.5 mph - N/A   Clear
4:53 PM 57.2 °F - 42.8 °F 59% 29.81 in 10.0 mi NW 11.5 mph 16.1 mph N/A   Clear
5:15 PM 57.2 °F - 41.0 °F 55% 29.82 in 10.0 mi WNW 10.4 mph - N/A   Clear
5:34 PM 55.4 °F - 39.2 °F 54% 29.82 in 10.0 mi NW 9.2 mph - N/A   Clear
5:52 PM 55.4 °F - 39.2 °F 54% 29.83 in 10.0 mi NW 10.4 mph - N/A   Clear
6:14 PM 53.6 °F - 39.2 °F 58% 29.83 in 10.0 mi WNW 5.8 mph - N/A   Clear
6:34 PM 51.8 °F - 39.2 °F 62% 29.84 in 10.0 mi WNW 5.8 mph - N/A   Clear
6:53 PM 50.0 °F - 39.2 °F 66% 29.84 in 10.0 mi WNW 4.6 mph - N/A   Clear
7:15 PM 50.0 °F - 39.2 °F 66% 29.84 in 10.0 mi West 3.5 mph - N/A   Clear
7:35 PM 48.2 °F - 39.2 °F 71% 29.84 in 10.0 mi West 5.8 mph - N/A   Clear
7:52 PM 48.2 °F - 39.2 °F 71% 29.85 in 10.0 mi West 5.8 mph - N/A   Clear
8:14 PM 46.4 °F 44.3 °F 39.2 °F 76% 29.84 in 10.0 mi West 4.6 mph - N/A   Clear
8:35 PM 46.4 °F 43.5 °F 39.2 °F 76% 29.85 in 10.0 mi West 5.8 mph - N/A   Clear
8:53 PM 46.4 °F 43.5 °F 39.2 °F 76% 29.85 in 10.0 mi West 5.8 mph - N/A   Scattered Clouds
9:14 PM 46.4 °F 43.5 °F 39.2 °F 76% 29.84 in 10.0 mi West 5.8 mph - N/A   Mostly Cloudy
9:35 PM 46.4 °F 45.2 °F 39.2 °F 76% 29.84 in 10.0 mi West 3.5 mph - N/A   Scattered Clouds
9:53 PM 44.6 °F 42.2 °F 39.2 °F 81% 29.84 in 10.0 mi West 4.6 mph - N/A   Mostly Cloudy
10:15 PM 44.6 °F 42.2 °F 39.2 °F 81% 29.84 in 10.0 mi West 4.6 mph - N/A   Scattered Clouds
10:35 PM 42.8 °F 41.1 °F 39.2 °F 87% 29.83 in 10.0 mi WSW 3.5 mph - N/A   Mostly Cloudy
10:52 PM 42.8 °F 40.1 °F 39.2 °F 87% 29.84 in 10.0 mi WSW 4.6 mph - N/A   Scattered Clouds
11:15 PM 44.6 °F 41.4 °F 39.2 °F 81% 29.84 in 10.0 mi WSW 5.8 mph - N/A   Clear
11:35 PM 44.6 °F 41.4 °F 39.2 °F 81% 29.83 in 10.0 mi WSW 5.8 mph - N/A   Scattered Clouds
11:53 PM 44.6 °F 41.4 °F 39.2 °F 81% 29.83 in 10.0 mi WSW 5.8 mph - N/A   Scattered Clouds